This demonstration page uses our WeatherBlox Daily Observations layout. Learn more.

Left ArrowRight Arrow

34.16533, -84.80231

Hourly Observations for November 16, 2020

Temp ( °F °C ) Dew Point ( °F °C ) Humidity (%) Winds ( mph kmh ) Pressure ( in mb ) Visibility ( mi km ) Precip ( " mm )
12:53 am 00:53 Clear 44 6.7 33 0.6 65 65 Calm 30.19 1022 10 16 0.00 0.00
1:53 am 01:53 Clear 48 8.9 29 -1.7 48 48 VRB 6 9 30.19 1022 10 16 0.00 0.00
2:53 am 02:53 Clear 47 8.3 29 -1.7 50 50 VRB 5 7 30.19 1023 10 16 0.00 0.00
3:53 am 03:53 Clear 44 6.7 31 -0.6 60 60 VRB 5 7 30.20 1023 10 16 0.00 0.00
4:53 am 04:53 Clear 43 6.1 31 -0.6 63 63 Calm 30.20 1023 10 16 0.00 0.00
5:53 am 05:53 Clear 42 5.6 32 0 68 68 Calm 30.21 1023 10 16 0.00 0.00
6:53 am 06:53 Clear 41 5 32 0 70 70 Calm 30.24 1024 10 16 0.00 0.00
7:53 am 07:53 Sunny 42 5.6 33 0.6 71 71 Calm 30.26 1025 10 16 0.00 0.00
8:53 am 08:53 Sunny 48 8.9 34 1.1 58 58 Calm 30.29 1026 10 16 0.00 0.00
9:53 am 09:53 Sunny 53 11.7 29 -1.7 40 40 N 9 15 30.30 1026 10 16 0.00 0.00
10:53 am 10:53 Sunny 56 13.3 27 -2.8 33 33 N 9 15 30.31 1026 10 16 0.00 0.00
11:53 am 11:53 Sunny 59 15 27 -2.8 29 29 VRB 6 9 30.31 1026 10 16 0.00 0.00
12:53 pm 12:53 Sunny 60 15.6 26 -3.3 27 27 N 9 15 30.28 1025 10 16 0.00 0.00
1:53 pm 13:53 Sunny 62 16.7 26 -3.3 25 25 VRB 6 9 30.25 1025 10 16 0.00 0.00
2:53 pm 14:53 Sunny 62 16.7 25 -3.9 24 24 N 9 15 30.24 1024 10 16 0.00 0.00
3:53 pm 15:53 Sunny 62 16.7 26 -3.3 25 25 NNW 5 7 30.24 1024 10 16 0.00 0.00
4:53 pm 16:53 Sunny 59 15 27 -2.8 29 29 Calm 30.24 1024 10 16 0.00 0.00
5:53 pm 17:53 Clear 49 9.4 34 1.1 56 56 Calm 30.25 1024 10 16 0.00 0.00
6:53 pm 18:53 Clear 45 7.2 35 1.7 68 68 Calm 30.25 1025 10 16 0.00 0.00
7:53 pm 19:53 Clear 43 6.1 35 1.7 74 74 Calm 30.27 1025 10 16 0.00 0.00
8:53 pm 20:53 Clear 41 5 34 1.1 76 76 Calm 30.27 1025 10 16 0.00 0.00
9:53 pm 21:53 Clear 39 3.9 34 1.1 82 82 Calm 30.28 1025 10 16 0.00 0.00
10:53 pm 22:53 Clear 38 3.3 33 0.6 83 83 Calm 30.29 1026 10 16 0.00 0.00
11:53 pm 23:53 Clear 36 2.2 33 0.6 89 89 Calm 30.30 1026 10 16 0.00 0.00

Powered by AerisWeather